| time (UTC) | temp F | wind direction | speed MPH | gust MPH | rain 1hr in | rain 24hr in | rain mn in | humidity % | barometer mb |
| 20260506173506 | 48 | 111 | 13.0 | 16.0 | 0.00 | 0.00 | 0.00 | 1016.0 | |
| 20260506170506 | 48 | 111 | 13.0 | 16.0 | 0.00 | 0.00 | 0.00 | 1016.0 | |
| 20260506163505 | 48 | 98 | 12.0 | 17.0 | 0.00 | 0.00 | 0.00 | 1017.0 | |
| 20260506160506 | 48 | 98 | 12.0 | 17.0 | 0.00 | 0.00 | 0.00 | 1017.0 | |
| 20260506153505 | 47 | 85 | 14.0 | 19.0 | 0.00 | 0.00 | 0.00 | 1017.0 | |
| 20260506150505 | 47 | 85 | 14.0 | 19.0 | 0.00 | 0.00 | 0.00 | 1017.0 | |
| 20260506143505 | 46 | 80 | 14.0 | 19.0 | 0.00 | 0.00 | 0.00 | 1018.0 | |
| 20260506140505 | 46 | 80 | 14.0 | 19.0 | 0.00 | 0.00 | 0.00 | 1018.0 | |
| 20260506133505 | 45 | 79 | 13.0 | 17.0 | 0.00 | 0.00 | 0.00 | 1018.0 | |
| 20260506130505 | 45 | 79 | 13.0 | 17.0 | 0.00 | 0.00 | 0.00 | 1018.0 | |
| 20260506123506 | 44 | 80 | 11.0 | 15.0 | 0.00 | 0.00 | 0.00 | 1018.0 | |
| 20260506120506 | 44 | 81 | 11.0 | 16.0 | 0.00 | 0.00 | 0.00 | 1019.0 | |
| 20260506113506 | 45 | 88 | 9.0 | 13.0 | 0.00 | 0.00 | 0.00 | 1019.0 | |
| 20260506110506 | 45 | 88 | 9.0 | 13.0 | 0.00 | 0.00 | 0.00 | 1019.0 | |
| 20260506103506 | 45 | 87 | 8.0 | 11.0 | 0.00 | 0.00 | 0.00 | 1019.0 | |
| 20260506100506 | 45 | 87 | 8.0 | 11.0 | 0.00 | 0.00 | 0.00 | 1019.0 | |
| 20260506093506 | 45 | 75 | 8.0 | 11.0 | 0.00 | 0.00 | 0.00 | 1019.0 | |
| 20260506090506 | 45 | 75 | 8.0 | 11.0 | 0.00 | 0.00 | 0.00 | 1019.0 | |
| 20260506083505 | 44 | 64 | 8.0 | 12.0 | 0.00 | 0.00 | 0.00 | 1019.0 | |
| 20260506080505 | 44 | 64 | 8.0 | 12.0 | 0.00 | 0.00 | 0.00 | 1019.0 | |
| 20260506073505 | 44 | 52 | 9.0 | 13.0 | 0.00 | 0.00 | 0.00 | 1019.0 | |
| 20260506070505 | 44 | 52 | 9.0 | 13.0 | 0.00 | 0.00 | 0.00 | 1019.0 | |
| 20260506060505 | 44 | 38 | 10.0 | 14.0 | 0.00 | 0.00 | 0.00 | 1019.0 | |
| 20260506050505 | 44 | 27 | 10.0 | 14.0 | 0.00 | 0.00 | 0.00 | 1019.0 | |
| 20260506043506 | 44 | 26 | 7.0 | 11.0 | 0.00 | 0.00 | 0.00 | 1019.0 | |
| 20260506040506 | 44 | 26 | 7.0 | 11.0 | 0.00 | 0.00 | 0.00 | 1019.0 | |
| 20260506033506 | 45 | 49 | 5.0 | 9.0 | 0.00 | 0.00 | 0.00 | 1019.0 | |
| 20260506030506 | 45 | 49 | 5.0 | 9.0 | 0.00 | 0.00 | 0.00 | 1019.0 | |
| 20260506023506 | 45 | 69 | 7.0 | 10.0 | 0.00 | 0.00 | 0.00 | 1019.0 | |
| 20260506020506 | 45 | 69 | 7.0 | 10.0 | 0.00 | 0.00 | 0.00 | 1019.0 | |
| 20260506013505 | 45 | 72 | 7.0 | 11.0 | 0.00 | 0.00 | 0.00 | 1019.0 | |
| 20260506010506 | 45 | 72 | 7.0 | 11.0 | 0.00 | 0.00 | 0.00 | 1019.0 | |
| 20260506003505 | 46 | 73 | 8.0 | 12.0 | 0.00 | 0.00 | 0.00 | 1020.0 | |
| 20260506000505 | 45 | 62 | 9.0 | 13.0 | 0.00 | 0.00 | 0.00 | 1020.0 | |
| 20260505233505 | 46 | 69 | 11.0 | 15.0 | 0.00 | 0.00 | 0.00 | 1020.0 | |
| 20260505230505 | 46 | 69 | 11.0 | 15.0 | 0.00 | 0.00 | 0.00 | 1020.0 | |
| 20260505223505 | 46 | 69 | 13.0 | 18.0 | 0.00 | 0.00 | 0.00 | 1020.0 | |
| 20260505220505 | 46 | 69 | 13.0 | 18.0 | 0.00 | 0.00 | 0.00 | 1020.0 | |
| 20260505213506 | 46 | 76 | 13.0 | 17.0 | 0.00 | 0.00 | 0.00 | 1020.0 | |
| 20260505210505 | 46 | 76 | 13.0 | 17.0 | 0.00 | 0.00 | 0.00 | 1020.0 | |
| 20260505203506 | 45 | 73 | 12.0 | 17.0 | 0.00 | 0.00 | 0.00 | 1020.0 | |
| 20260505200506 | 45 | 73 | 12.0 | 17.0 | 0.00 | 0.00 | 0.00 | 1020.0 | |
| 20260505193506 | 46 | 71 | 12.0 | 16.0 | 0.00 | 0.00 | 0.00 | 1020.0 | |
| 20260505190506 | 46 | 71 | 12.0 | 16.0 | 0.00 | 0.00 | 0.00 | 1020.0 | |
| 20260505183506 | 45 | 69 | 14.0 | 18.0 | 0.00 | 0.00 | 0.00 | 1019.0 | |
| 20260505180506 | 45 | 67 | 15.0 | 20.0 | 0.00 | 0.00 | 0.00 | 1019.0 |